Flag for U.S.A. Weather past 2 weeks in Wailuku, Hawaii, U.S.A.

Now
74 °F

Passing clouds.


Feels Like: 74 °F
Forecast: 71 / 78 °F
Wind: 17 mph from Northeast

Location: Kahului Airport


UV Index: 7 (High)

Visibility: 10 mi


Pressure: 30.14 "Hg

Humidity: 79%

Dew point: 67 °F

Location of WailukuLocation

Historic Weather in Wailuku

°F

Wailuku temperature yesterday

Maximum temperature yesterday: 83 °F (at 12:54 PM)
Minimum temperature yesterday: 73 °F (at 1:54 AM)
Average temperature yesterday: 77 °F

Past Weeks' High & Low Weather Summary

 TemperatureHumidityPressure
High84 °F (Apr 18, 12:54 PM)90% (Apr 12, 6:54 PM)30.20 "Hg (Apr 12, 6:54 PM)
Low63 °F (Apr 11, 5:54 AM)42% (Apr 14, 9:54 AM)30.00 "Hg (Apr 10, 2:54 PM)
Average74 °F72%30.10 "Hg
* Reported Apr 9 7:54 PM — Apr 24 7:54 PM, Wailuku, Weather by CustomWeather, © 2014

Note: Actual official high and low records may vary slightly from our data, if they occured in-between our weather recording intervals... More about our weather records

Advertising

Historic Weather Conditions — Data for Previous 24 hours

 ConditionsComfort  
Time TempWeatherWind HumidityBarometerVisibility
7:54 PM
Apr 24
74 °FPassing clouds.14 mph79%30.11 "Hg10 mi
6:54 PM74 °FPassing clouds.21 mph76%30.10 "Hg10 mi
5:54 PM76 °FScattered clouds.15 mph74%30.08 "Hg10 mi
4:54 PM77 °FLight rain. Broken clouds.17 mph77%30.07 "Hg9 mi
4:31 PM75 °FLight rain. Partly sunny.22 mph83%30.06 "Hg7 mi
3:54 PM79 °FLight rain. Scattered clouds.18 mph72%30.07 "Hg10 mi
2:54 PM80 °FLight rain. Scattered clouds.22 mph74%30.08 "Hg10 mi
1:54 PM82 °FScattered clouds.28 mph63%30.09 "Hg10 mi
12:54 PM83 °FScattered clouds.28 mph61%30.10 "Hg10 mi
11:54 AM82 °FScattered clouds.24 mph63%30.13 "Hg10 mi
10:54 AM82 °FScattered clouds.22 mph60%30.14 "Hg10 mi
9:54 AM80 °FScattered clouds.21 mph69%30.15 "Hg10 mi
8:54 AM78 °FScattered clouds.14 mph71%30.14 "Hg10 mi
7:54 AM76 °FPassing clouds.12 mph77%30.12 "Hg10 mi
6:54 AM73 °FScattered clouds.18 mph81%30.11 "Hg10 mi
5:54 AM72 °FPassing clouds.17 mph84%30.08 "Hg10 mi
4:54 AM72 °FRain. Mostly cloudy.15 mph84%30.07 "Hg8 mi
3:54 AM73 °FLight rain. Overcast.17 mph81%30.06 "Hg10 mi
2:54 AM74 °FClear.21 mph76%30.07 "Hg10 mi
1:54 AM74 °FLight rain. Passing clouds.18 mph76%30.09 "Hg10 mi
12:54 AM74 °FPassing clouds.17 mph76%30.10 "Hg10 mi
11:54 PM
Apr 23
74 °FClear.18 mph76%30.11 "Hg10 mi
10:54 PM74 °FClear.20 mph76%30.12 "Hg10 mi
9:54 PM74 °FClear.18 mph76%30.12 "Hg10 mi
Weather by CustomWeather, © 2014

See weather overview